Home   Weather   The Valley   Past weeks

Flag for Anguilla Past Weather in The Valley, Anguilla — Yesterday and Last 2 Weeks

Now
79 °F

Passing clouds.


Feels Like: 82 °F
Forecast: 78 / 82 °F
Wind: 13 mph from East

Location: Juliana Airport - Saint Maarten

Current Time: Apr 24, 2017 at 1:48:32 am

Latest Report: Apr 24, 2017 at 1:00 am


Visibility: N/A

Pressure: 29.98 "Hg

Humidity: 84%

Dew Point: 73 °F

Location of The ValleyLocation

Past Weather in The Valley — Graph

°F

The Valley Temperature Yesterday

Maximum temperature yesterday: 82 °F (at 1:00 pm)
Minimum temperature yesterday: 77 °F (at 12:00 am)
Average temperature yesterday: 79 °F

High & Low Weather Summary for the Past Weeks

 TemperatureHumidityPressure
High84 °F (Apr 12, 12:00 pm)100% (Apr 9, 2:25 pm)30.07 "Hg (Apr 9, 2:25 pm)
Low72 °F (Apr 10, 5:00 am)51% (Apr 19, 3:00 pm)29.89 "Hg (Apr 11, 3:00 am)
Average79 °F76%29.98 "Hg
* Reported Apr 9 12:00 am — Apr 24 12:00 am, The Valley, Weather by CustomWeather, © 2017

Note: Actual official high and low records may vary slightly from our data, if they occured in-between our weather recording intervals... More about our weather records

Advertising

The Valley Weather History for the Previous 24 Hours

Scroll right to see more
 ConditionsComfort  
Time TempWeatherWind HumidityBarometerVisibility
12:00 am
Mon, Apr 24
79 °FPassing clouds.13 mph84%30.01 "HgN/A
11:00 pm
Sun, Apr 23
79 °FPassing clouds.12 mph84%30.01 "HgN/A
10:00 pm79 °FPassing clouds.15 mph84%30.01 "HgN/A
9:00 pm79 °FPassing clouds.15 mph84%29.98 "HgN/A
8:00 pm79 °FPassing clouds.14 mph84%29.98 "HgN/A
7:00 pm79 °FPassing clouds.15 mph84%29.95 "HgN/A
6:00 pm79 °FBroken clouds.15 mph79%29.95 "HgN/A
5:00 pm81 °FScattered clouds.14 mph74%29.92 "HgN/A
4:00 pm81 °FScattered clouds.14 mph74%29.95 "HgN/A
3:00 pm81 °FPartly sunny.16 mph70%29.95 "HgN/A
2:00 pm81 °FPartly sunny.16 mph70%29.95 "HgN/A
1:00 pm82 °FBroken clouds.13 mph70%29.98 "HgN/A
12:00 pm81 °FScattered clouds.15 mph70%30.01 "HgN/A
11:00 am81 °FPartly sunny.14 mph66%30.01 "HgN/A
10:00 am81 °FPartly sunny.13 mph62%30.04 "HgN/A
9:00 am81 °FPartly sunny.14 mph66%30.01 "HgN/A
8:00 am79 °FPartly sunny.12 mph65%30.01 "HgN/A
7:00 am79 °FPartly sunny.10 mph70%29.98 "HgN/A
6:00 am77 °FPartly sunny.10 mph69%29.98 "HgN/A
5:00 am77 °FPassing clouds.10 mph69%29.95 "HgN/A
4:00 am77 °FPassing clouds.9 mph69%29.95 "HgN/A
3:00 am77 °FPassing clouds.10 mph74%29.95 "HgN/A
2:00 am77 °FPassing clouds.12 mph74%29.98 "HgN/A
1:00 am77 °FPassing clouds.10 mph65%29.98 "HgN/A
Weather by CustomWeather, © 2017

See weather overviewHow to use our weather pages